Location: Cortada de Papelón
(10.0378°N, 66.9528°W)
Time: 10:15:41
(UTC+00:00)

Cosmos 1536 - Pass Details

Date: 13 June 2024
Orbit: 514 x 539 km, 82.6° (Epoch: 19 July)

Event Time Altitude Azimuth Distance (km) Brightness Sun altitude
Rises 23:05:24 0° 12° (NNE) 2,690 6.5 -4.4°
Reaches altitude 10° 23:07:45 10° 24° (NNE) 1,799 5.5 -5.0°
Maximum altitude 23:11:13 29° 85° (E) 1,005 3.7 -5.7°
Drops below altitude 10° 23:14:40 10° 146° (SE) 1,794 4.9 -6.5°
Enters shadow 23:16:38 - 156° (SSE) 2,531 5.7 -7.0°
